TimeCEST,TemperatureF,Dew PointF,Humidity,Sea Level PressureIn,VisibilityMPH,Wind Direction,Wind SpeedMPH,Gust SpeedMPH,PrecipitationIn,Events,Conditions,WindDirDegrees,DateUTC
12:00 AM,51.8,51.8,100,30.04,3.7,Calm,Calm,-,N/A,,Mostly Cloudy,0,2013-10-09 22:00:00
12:30 AM,51.8,50.0,94,30.01,3.7,Variable,3.5,-,N/A,,Mostly Cloudy,0,2013-10-09 22:30:00
1:00 AM,51.8,50.0,94,30.01,3.7,Calm,Calm,-,N/A,Rain,Light Rain,0,2013-10-09 23:00:00
1:30 AM,51.8,50.0,94,30.01,3.1,Variable,2.3,-,N/A,Rain,Light Rain,0,2013-10-09 23:30:00
2:00 AM,51.8,50.0,94,30.01,2.8,ESE,4.6,-,N/A,,Overcast,120,2013-10-10 00:00:00
2:30 AM,51.8,51.8,100,30.01,2.8,Variable,3.5,-,N/A,Rain,Light Rain,0,2013-10-10 00:30:00
3:00 AM,51.8,50.0,94,29.98,1.9,Variable,3.5,-,N/A,Rain,Rain,0,2013-10-10 01:00:00
3:30 AM,51.8,50.0,94,29.98,1.9,Variable,2.3,-,N/A,Rain,Rain,0,2013-10-10 01:30:00
4:00 AM,51.8,51.8,100,29.98,1.9,Variable,2.3,-,N/A,Rain,Light Rain,0,2013-10-10 02:00:00
4:30 AM,51.8,51.8,100,29.98,1.9,Variable,2.3,-,N/A,,Overcast,0,2013-10-10 02:30:00
5:00 AM,51.8,51.8,100,29.98,1.9,Variable,3.5,-,N/A,,Overcast,0,2013-10-10 03:00:00
5:30 AM,51.8,51.8,100,29.95,1.9,Variable,3.5,-,N/A,,Overcast,0,2013-10-10 03:30:00
6:00 AM,51.8,51.8,100,29.95,2.2,Variable,1.2,-,N/A,,Overcast,0,2013-10-10 04:00:00
6:30 AM,51.8,51.8,100,29.95,2.5,Variable,3.5,-,N/A,,Overcast,0,2013-10-10 04:30:00
7:00 AM,51.8,51.8,100,29.95,2.2,East,5.8,-,N/A,,Overcast,90,2013-10-10 05:00:00
7:30 AM,51.8,51.8,100,29.95,2.2,Variable,3.5,-,N/A,,Overcast,0,2013-10-10 05:30:00
8:00 AM,51.8,51.8,100,29.92,2.2,ESE,5.8,-,N/A,,Overcast,110,2013-10-10 06:00:00
8:30 AM,51.8,51.8,100,29.95,2.2,ESE,5.8,-,N/A,Rain,Light Rain,110,2013-10-10 06:30:00
9:00 AM,51.8,51.8,100,29.95,2.2,East,6.9,-,N/A,Rain,Light Rain,90,2013-10-10 07:00:00
9:30 AM,51.8,51.8,100,29.95,2.5,East,5.8,-,N/A,,Overcast,90,2013-10-10 07:30:00
10:00 AM,53.6,51.8,94,29.95,-9999.0,East,4.6,-,N/A,,Overcast,80,2013-10-10 08:00:00
10:30 AM,53.6,51.8,94,29.92,2.8,East,4.6,-,N/A,,Overcast,80,2013-10-10 08:30:00
11:00 AM,53.6,51.8,94,29.95,2.8,Variable,3.5,-,N/A,,Overcast,0,2013-10-10 09:00:00
11:30 AM,53.6,51.8,94,29.92,2.5,Variable,3.5,-,N/A,,Overcast,0,2013-10-10 09:30:00
12:00 PM,53.6,53.6,100,29.95,2.2,East,4.6,-,N/A,,Overcast,80,2013-10-10 10:00:00
12:30 PM,53.6,53.6,100,29.92,2.2,East,4.6,-,N/A,,Overcast,90,2013-10-10 10:30:00
1:00 PM,55.4,53.6,94,29.92,2.5,East,5.8,-,N/A,,Overcast,80,2013-10-10 11:00:00
1:30 PM,55.4,53.6,94,29.92,2.5,East,6.9,-,N/A,,Overcast,100,2013-10-10 11:30:00
2:00 PM,55.4,53.6,94,29.92,2.5,East,8.1,-,N/A,,Overcast,90,2013-10-10 12:00:00
2:30 PM,55.4,53.6,94,29.92,2.5,ESE,8.1,-,N/A,,Overcast,120,2013-10-10 12:30:00
3:00 PM,55.4,53.6,94,29.92,2.5,ESE,8.1,-,N/A,,Overcast,110,2013-10-10 13:00:00
3:30 PM,55.4,53.6,94,29.89,2.2,ESE,6.9,-,N/A,,Overcast,110,2013-10-10 13:30:00
4:00 PM,55.4,55.4,100,29.89,1.9,ESE,9.2,-,N/A,,Overcast,110,2013-10-10 14:00:00
4:30 PM,55.4,55.4,100,29.89,1.9,ESE,6.9,-,N/A,,Overcast,120,2013-10-10 14:30:00
5:00 PM,55.4,55.4,100,29.89,1.9,East,8.1,-,N/A,,Overcast,100,2013-10-10 15:00:00
5:30 PM,55.4,55.4,100,29.89,-9999.0,ESE,8.1,-,N/A,,Overcast,110,2013-10-10 15:30:00
6:00 PM,55.4,53.6,94,29.89,2.5,East,8.1,-,N/A,,Overcast,90,2013-10-10 16:00:00
6:30 PM,55.4,53.6,94,29.89,2.5,East,8.1,-,N/A,,Overcast,80,2013-10-10 16:30:00
7:00 PM,55.4,53.6,94,29.92,3.1,East,8.1,-,N/A,,Overcast,90,2013-10-10 17:00:00
7:30 PM,53.6,53.6,100,29.92,2.5,East,9.2,-,N/A,,Overcast,80,2013-10-10 17:30:00
8:00 PM,55.4,55.4,100,29.92,2.5,East,10.4,-,N/A,,Overcast,90,2013-10-10 18:00:00
8:30 PM,53.6,53.6,100,29.92,1.9,East,10.4,-,N/A,,Overcast,90,2013-10-10 18:30:00
9:00 PM,53.6,53.6,100,29.92,1.9,East,9.2,-,N/A,,Overcast,80,2013-10-10 19:00:00
9:30 PM,53.6,53.6,100,29.92,1.9,East,8.1,-,N/A,,Mostly Cloudy,80,2013-10-10 19:30:00
10:00 PM,53.6,53.6,100,29.92,2.5,ENE,9.2,-,N/A,Rain,Mostly Cloudy,70,2013-10-10 20:00:00
10:30 PM,55.4,53.6,94,29.92,2.5,East,9.2,-,N/A,,Mostly Cloudy,80,2013-10-10 20:30:00
11:00 PM,55.4,53.6,94,29.92,3.1,East,9.2,-,N/A,,Mist,90,2013-10-10 21:00:00
11:30 PM,55.4,53.6,94,29.95,3.1,East,8.1,-,N/A,Rain,Light Mist,80,2013-10-10 21:30:00